Tracking 32140 objects as of 13-Nov-2025
HD Live streaming from Space Station
objects crossing your sky now

STARLINK-34843

Track STARLINK-34843 now!
10-day predictions
STARLINK-34843 is classified as:


NORAD ID: 65201
Int'l Code: 2025-176D
Perigee: 481.2 km
Apogee: 483.4 km
Inclination: 53.2 °
Period: 94.1 minutes
Semi major axis: 6853 km
RCS: Unknown
Launch date: August 14, 2025
Source: United States (US)
Launch site: AIR FORCE EASTERN TEST RANGE (AFETR)
Your satellite tracking list
Your tracking list is empty




NASA's NSSDC Master Catalog

Two Line Element Set (TLE):
1 65201U 25176D   25316.35295991  .00063036  00000-0  21211-2 0  9992
2 65201  53.1586 337.8912 0001658 104.8067 255.3118 15.30219419 15155
Source of the keplerian elements: AFSPC